Weather History for Eureka Airport, NV

Change the Weather History Date:

Thursday, February 14, 2013

  Actual Average Record
Temperature  
Mean Temperature 26 °F -  
Max Temperature 39 °F - - ()
Min Temperature 12 °F - - ()
Degree Days  
Heating Degree Days 40    
Moisture  
Dew Point 19 °F    
Average Humidity 79    
Maximum Humidity 93    
Minimum Humidity 56    
Precipitation  
Precipitation 0.00 in - - ()
Sea Level Pressure  
Sea Level Pressure 30.40 in    
Wind  
Wind Speed 4 mph (SE)    
Max Wind Speed 9 mph    
Max Gust Speed -    
Visibility 10 miles    
Events      
T = Trace of Precipitation, MM = Missing Value Source: NWS Daily Summary

Daily Weather History Graph

Daily Weather History Graph

Search for Another Location

Airport:

Trip Planner

Search our weather history database for the weather conditions in past years. The results will help you decide how hot, cold, wet, or windy it might be!

Date:

Astronomy

Feb. 14, 2013 Rise Set
Actual Time 6:37 AM PST 5:19 PM PST
Civil Twilight 6:09 AM PST 5:47 PM PST
Nautical Twilight 5:37 AM PST 6:19 PM PST
Astronomical Twilight 5:06 AM PST 6:50 PM PST
Moon 8:42 AM PST (2/14) 10:25 PM PST (2/14)
Length of Visible Light 11h 37m
Length of Day
10h 42m
Waxing Crescent, 22% of the Moon is Illuminated
Feb 14
Waxing Crescent
Feb 17
First Quarter
Feb 25
Full
Mar 4
Last Quarter
Mar 11
New

Hourly Weather History & Observations

Time (PST) Temp. Windchill Dew Point Humidity Pressure Visibility Wind Dir Wind Speed Gust Speed Precip Events Conditions
12:15 AM 15.8 °F - 14.0 °F 93% 30.32 in 10.0 mi Calm Calm - N/A   Clear
12:35 AM 15.8 °F 8.6 °F 14.0 °F 93% 30.32 in 10.0 mi SSW 4.6 mph - N/A   Scattered Clouds
12:55 AM 15.8 °F - 14.0 °F 93% 30.32 in 10.0 mi Calm Calm - N/A   Partly Cloudy
1:15 AM 17.6 °F 9.3 °F 15.8 °F 93% 30.32 in 10.0 mi South 5.8 mph - N/A   Clear
1:35 AM 19.4 °F 8.6 °F 17.6 °F 93% 30.32 in 10.0 mi SSW 9.2 mph - N/A   Clear
1:55 AM 19.4 °F 9.5 °F 17.6 °F 93% 30.32 in 10.0 mi SSW 8.1 mph - N/A   Clear
2:15 AM 17.6 °F 8.2 °F 15.8 °F 93% 30.32 in 10.0 mi SSW 6.9 mph - N/A   Clear
2:35 AM 15.8 °F 7.2 °F 14.0 °F 93% 30.32 in 10.0 mi South 5.8 mph - N/A   Clear
2:55 AM 19.4 °F 11.5 °F 15.8 °F 86% 30.32 in 10.0 mi South 5.8 mph - N/A   Clear
3:15 AM 17.6 °F 8.2 °F 15.8 °F 93% 30.32 in 10.0 mi South 6.9 mph - N/A   Clear
3:35 AM 17.6 °F 12.3 °F 14.0 °F 86% 30.32 in 10.0 mi SW 3.5 mph - N/A   Clear
3:55 AM 15.8 °F - 12.2 °F 86% 30.32 in 10.0 mi Calm Calm - N/A   Clear
4:15 AM 12.2 °F 1.7 °F 8.6 °F 85% 30.33 in 10.0 mi SW 6.9 mph - N/A   Scattered Clouds
4:35 AM 14.0 °F - 12.2 °F 93% 30.34 in 10.0 mi Calm Calm - N/A   Mostly Cloudy
4:55 AM 14.0 °F - 10.4 °F 86% 30.35 in 10.0 mi Calm Calm - N/A   Overcast
5:15 AM 15.8 °F 10.2 °F 14.0 °F 93% 30.35 in 10.0 mi West 3.5 mph - N/A   Overcast
5:35 AM 15.8 °F 10.2 °F 14.0 °F 93% 30.36 in 10.0 mi East 3.5 mph - N/A   Scattered Clouds
5:55 AM 15.8 °F - 14.0 °F 93% 30.36 in 10.0 mi Calm Calm - N/A   Mostly Cloudy
6:15 AM 15.8 °F 7.2 °F 12.2 °F 86% 30.37 in 10.0 mi West 5.8 mph - N/A   Mostly Cloudy
6:35 AM 14.0 °F 5.1 °F 10.4 °F 86% 30.37 in 10.0 mi WSW 5.8 mph - N/A   Partly Cloudy
6:55 AM 14.0 °F 5.1 °F 10.4 °F 86% 30.37 in 10.0 mi South 5.8 mph - N/A   Clear
7:15 AM 15.8 °F 7.2 °F 12.2 °F 86% 30.38 in 10.0 mi South 5.8 mph - N/A   Clear
7:55 AM 17.6 °F - 15.8 °F 93% 30.40 in 10.0 mi Calm Calm - N/A   Mostly Cloudy
8:15 AM 23.0 °F 15.8 °F 19.4 °F 86% 30.41 in 10.0 mi WNW 5.8 mph - N/A   Overcast
8:35 AM 26.6 °F 20.0 °F 23.0 °F 86% 30.41 in 10.0 mi WNW 5.8 mph - N/A   Overcast
8:55 AM 28.4 °F - 24.8 °F 86% 30.41 in 10.0 mi Calm Calm - N/A   Overcast
9:15 AM 32.0 °F - 26.6 °F 80% 30.42 in 10.0 mi Calm Calm - N/A   Overcast
9:35 AM 30.2 °F 26.7 °F 24.8 °F 80% 30.42 in 10.0 mi ENE 3.5 mph - N/A   Overcast
9:55 AM 32.0 °F - 24.8 °F 75% 30.43 in 10.0 mi Calm Calm - N/A   Overcast
10:15 AM 32.0 °F - 24.8 °F 75% 30.43 in 10.0 mi Calm Calm - N/A   Overcast
10:35 AM 33.8 °F 30.8 °F 24.8 °F 70% 30.43 in 10.0 mi East 3.5 mph - N/A   Overcast
10:55 AM 35.6 °F - 24.8 °F 65% 30.44 in 10.0 mi Calm Calm - N/A   Overcast
11:15 AM 35.6 °F - 24.8 °F 65% 30.43 in 10.0 mi Calm Calm - N/A   Overcast
11:35 AM 37.4 °F 34.9 °F 24.8 °F 60% 30.42 in 10.0 mi ESE 3.5 mph - N/A   Scattered Clouds
11:55 AM 39.2 °F 35.9 °F 24.8 °F 56% 30.41 in 10.0 mi ENE 4.6 mph - N/A   Partly Cloudy
12:15 PM 39.2 °F 35.0 °F 24.8 °F 56% 30.41 in 10.0 mi ENE 5.8 mph - N/A   Clear
12:35 PM 39.2 °F 35.0 °F 24.8 °F 56% 30.40 in 10.0 mi East 5.8 mph - N/A   Clear
12:55 PM 39.2 °F 35.0 °F 24.8 °F 56% 30.40 in 10.0 mi ENE 5.8 mph - N/A   Clear
1:15 PM 39.2 °F 34.2 °F 24.8 °F 56% 30.40 in 10.0 mi ENE 6.9 mph - N/A   Clear
1:35 PM 39.2 °F 34.2 °F 24.8 °F 56% 30.40 in 10.0 mi NE 6.9 mph - N/A   Clear
1:55 PM 39.2 °F 34.2 °F 24.8 °F 56% 30.39 in 10.0 mi NE 6.9 mph - N/A   Clear
2:15 PM 39.2 °F 35.9 °F 24.8 °F 56% 30.40 in 10.0 mi ENE 4.6 mph - N/A   Clear
2:35 PM 39.2 °F 35.9 °F 24.8 °F 56% 30.40 in 10.0 mi East 4.6 mph - N/A   Clear
2:55 PM 39.2 °F 35.0 °F 24.8 °F 56% 30.40 in 10.0 mi ENE 5.8 mph - N/A   Clear
3:15 PM 39.2 °F 34.2 °F 24.8 °F 56% 30.40 in 10.0 mi ENE 6.9 mph - N/A   Clear
3:35 PM 39.2 °F 34.2 °F 24.8 °F 56% 30.41 in 10.0 mi ENE 6.9 mph - N/A   Clear
3:55 PM 37.4 °F 32.8 °F 24.8 °F 60% 30.40 in 10.0 mi ENE 5.8 mph - N/A   Clear
4:15 PM 37.4 °F 32.8 °F 24.8 °F 60% 30.41 in 10.0 mi NE 5.8 mph - N/A   Clear
4:35 PM 37.4 °F 32.8 °F 26.6 °F 65% 30.41 in 10.0 mi NNE 5.8 mph - N/A   Clear
4:55 PM 35.6 °F 29.9 °F 24.8 °F 65% 30.42 in 10.0 mi NNE 6.9 mph - N/A   Clear
5:15 PM 33.8 °F 29.6 °F 24.8 °F 70% 30.42 in 10.0 mi North 4.6 mph - N/A   Clear
5:35 PM 32.0 °F 25.6 °F 23.0 °F 69% 30.42 in 10.0 mi North 6.9 mph - N/A   Clear
5:55 PM 28.4 °F 22.2 °F 23.0 °F 80% 30.43 in 10.0 mi NNW 5.8 mph - N/A   Clear
6:15 PM 28.4 °F 23.3 °F 23.0 °F 80% 30.43 in 10.0 mi North 4.6 mph - N/A   Clear
6:35 PM 24.8 °F - 19.4 °F 80% 30.44 in 10.0 mi Calm Calm - N/A   Clear
6:55 PM 24.8 °F - 21.2 °F 86% 30.44 in 10.0 mi Calm Calm - N/A   Clear
7:15 PM 24.8 °F - 19.4 °F 80% 30.44 in 10.0 mi Calm Calm - N/A   Clear
7:35 PM 23.0 °F - 19.4 °F 86% 30.44 in 10.0 mi Calm Calm - N/A   Clear
7:55 PM 19.4 °F 12.8 °F 17.6 °F 93% 30.45 in 10.0 mi South 4.6 mph - N/A   Clear
8:15 PM 19.4 °F 12.8 °F 17.6 °F 93% 30.45 in 10.0 mi SSW 4.6 mph - N/A   Clear
8:35 PM 17.6 °F 10.7 °F 15.8 °F 93% 30.45 in 10.0 mi SSW 4.6 mph - N/A   Clear
8:55 PM 19.4 °F 10.4 °F 17.6 °F 93% 30.46 in 10.0 mi SSW 6.9 mph - N/A   Clear
9:15 PM 21.2 °F - 17.6 °F 86% 30.46 in 10.0 mi Calm Calm - N/A   Clear
9:35 PM 19.4 °F 12.8 °F 15.8 °F 86% 30.46 in 10.0 mi South 4.6 mph - N/A   Clear
9:55 PM 15.8 °F - 14.0 °F 93% 30.46 in 10.0 mi Calm Calm - N/A   Clear
10:15 PM 15.8 °F - 14.0 °F 93% 30.46 in 10.0 mi Calm Calm - N/A   Clear
10:55 PM 15.8 °F 7.2 °F 14.0 °F 93% 30.47 in 10.0 mi SSE 5.8 mph - N/A   Clear
11:15 PM 15.8 °F 7.2 °F 14.0 °F 93% 30.48 in 10.0 mi SSW 5.8 mph - N/A   Clear
11:35 PM 15.8 °F 7.2 °F 14.0 °F 93% 30.48 in 10.0 mi SSW 5.8 mph - N/A   Clear
11:55 PM 15.8 °F 8.6 °F 10.4 °F 79% 30.48 in 10.0 mi South 4.6 mph - N/A   Clear